Custer, SD

6:59 AM MDT on March 25, 2017 (GMT -0600)
Custer County

Weather History for KCUT - June, 2014

Change the Weather History Date:

Wednesday, June 11, 2014

  Actual Average Record
Temperature  
Mean Temperature 52 °F 57 °F  
Max Temperature 64 °F 69 °F 92 °F (2016)
Min Temperature 39 °F 45 °F 27 °F (1985)
Degree Days  
Heating Degree Days 13 9  
Month to date heating degree days 143 114  
Since 1 June heating degree days 143 114  
Since 1 July heating degree days 8303 8283  
Cooling Degree Days 0 0  
Month to date cooling degree days 0 0  
Year to date cooling degree days 4 1  
Since 1 June cooling degree days 0 0  
Growing Degree Days 4 (Base 50)    
Moisture  
Dew Point 43 °F    
Average Humidity 67    
Maximum Humidity 93    
Minimum Humidity 40    
Precipitation  
Precipitation T in 0.12 in 1.37 in (1957)
Month to date precipitation 1.58 1.36  
Year to date precipitation 9.30 8.47  
Sea Level Pressure  
Sea Level Pressure 29.89 in    
Wind  
Wind Speed 6 mph (NNW)    
Max Wind Speed 16 mph    
Max Gust Speed 24 mph    
Visibility 10 miles    
Events Rain , Thunderstorm    
T = Trace of Precipitation, MM = Missing Value Source: NWS Daily Summary

Daily Weather History Graph

Daily Weather History Graph

Search for Another Location

Airport or City:

Trip Planner

Search our weather history database for the weather conditions in past years. The results will help you decide how hot, cold, wet, or windy it might be!

Date:

Astronomy

Jun. 11, 2014 Rise Set
Actual Time 5:12 AM MDT 8:36 PM MDT
Civil Twilight 4:36 AM MDT 9:12 PM MDT
Nautical Twilight 3:49 AM MDT 9:59 PM MDT
Astronomical Twilight 2:51 AM MDT 10:57 PM MDT
Moon 7:05 PM MDT (6/11) 4:07 AM MDT (6/11)
Length of Visible Light 16h 35m
Length of Day
15h 23m
Waxing Gibbous, 97% of the Moon is Illuminated
Jun 11
Waxing Gibbous
Jun 12
Full
Jun 19
Last Quarter
Jun 27
New
Jul 5
First Quarter

Hourly Weather History & Observations

Time (MDT) Temp. Windchill Dew Point Humidity Pressure Visibility Wind Dir Wind Speed Gust Speed Precip Events Conditions
12:53 AM 53.1 °F - 46.0 °F 77% 29.71 in 10.0 mi North 5.8 mph - N/A   Clear
1:53 AM 48.0 °F - 45.0 °F 89% 29.71 in 10.0 mi West 4.6 mph - N/A   Clear
2:53 AM 46.9 °F - 45.0 °F 93% 29.71 in 10.0 mi WNW 3.5 mph - N/A   Clear
3:53 AM 45.0 °F 41.8 °F 43.0 °F 93% 29.71 in 10.0 mi West 5.8 mph - N/A   Partly Cloudy
4:53 AM 44.1 °F - 42.1 °F 93% 29.74 in 9.0 mi Calm Calm - N/A   Clear
5:53 AM 45.0 °F - 43.0 °F 93% 29.74 in 10.0 mi Calm Calm - N/A   Clear
6:53 AM 52.0 °F - 46.0 °F 80% 29.74 in 10.0 mi NW 4.6 mph - N/A   Clear
7:53 AM 59.0 °F - 45.0 °F 60% 29.74 in 10.0 mi Variable 3.5 mph - N/A   Clear
8:53 AM 60.1 °F - 45.0 °F 57% 29.77 in 10.0 mi East 8.1 mph - N/A   Mostly Cloudy
9:53 AM 60.1 °F - 46.9 °F 62% 29.78 in 10.0 mi NE 6.9 mph - N/A   Mostly Cloudy
10:32 AM 57.9 °F - 48.9 °F 72% 29.93 in 10.0 mi East 5.8 mph - N/A   Overcast
10:53 AM 55.9 °F - 48.0 °F 75% 29.81 in 10.0 mi NE 6.9 mph - N/A   Overcast
11:53 AM 55.0 °F - 45.0 °F 69% 29.85 in 10.0 mi Variable 4.6 mph - 0.00 in Rain Light Rain
12:29 PM 57.9 °F - 46.0 °F 65% 29.98 in 10.0 mi North 4.6 mph - 0.00 in Thunderstorm Overcast
12:39 PM 55.9 °F - 45.0 °F 67% 29.98 in 10.0 mi Calm Calm - 0.00 in Thunderstorm Thunderstorm
12:51 PM 57.2 °F - 44.6 °F 63% 29.98 in 10.0 mi Calm Calm - 0.00 in   Overcast
12:53 PM 57.9 °F - 45.0 °F 62% 29.85 in 10.0 mi North 5.8 mph - 0.00 in   Overcast
1:07 PM 57.9 °F - 45.0 °F 62% 29.98 in 10.0 mi Calm Calm - N/A   Overcast
1:14 PM 57.9 °F - 46.9 °F 67% 29.99 in 10.0 mi Variable 6.9 mph - N/A Thunderstorm Overcast
1:27 PM 57.9 °F - 48.9 °F 72% 29.99 in 10.0 mi SSW 10.4 mph - N/A   Overcast
1:42 PM 60.1 °F - 48.0 °F 64% 29.99 in 10.0 mi Variable 6.9 mph - N/A   Overcast
1:53 PM 63.0 °F - 44.1 °F 50% 29.86 in 10.0 mi West 13.8 mph 21.9 mph N/A   Mostly Cloudy
2:53 PM 63.0 °F - 42.1 °F 46% 29.88 in 10.0 mi WNW 12.7 mph 18.4 mph N/A   Partly Cloudy
3:53 PM 60.1 °F - 37.9 °F 44% 29.92 in 10.0 mi WNW 9.2 mph 18.4 mph N/A   Partly Cloudy
4:53 PM 60.1 °F - 37.0 °F 42% 29.92 in 10.0 mi WNW 10.4 mph 18.4 mph N/A   Mostly Cloudy
5:53 PM 59.0 °F - 35.1 °F 41% 29.94 in 10.0 mi NNW 10.4 mph 19.6 mph N/A   Partly Cloudy
6:53 PM 57.0 °F - 37.0 °F 47% 29.94 in 10.0 mi NE 9.2 mph - N/A   Clear
7:53 PM 53.1 °F - 37.0 °F 55% 29.96 in 10.0 mi North 6.9 mph - N/A   Clear
8:53 PM 48.0 °F - 37.9 °F 68% 30.01 in 10.0 mi ENE 5.8 mph - N/A   Clear
9:53 PM 46.0 °F 43.1 °F 37.9 °F 73% 30.05 in 10.0 mi North 5.8 mph - N/A   Mostly Cloudy
10:16 PM 46.0 °F 43.1 °F 37.9 °F 73% 30.16 in 10.0 mi North 5.8 mph - N/A   Scattered Clouds
10:53 PM 44.1 °F - 37.9 °F 79% 30.07 in 10.0 mi Calm Calm - N/A   Clear
11:53 PM 39.9 °F 37.8 °F 37.0 °F 89% 30.09 in 10.0 mi SW 3.5 mph - N/A   Clear